Ukiah, CA

5:56 PM PST on February 11, 2016 (GMT -0800)
Ukiah Municipal

Weather History for KUKI - July, 2014

Change the Weather History Date:

Tuesday, July 29, 2014

  Actual Average Record
Temperature  
Mean Temperature 81 °F 74 °F  
Max Temperature 104 °F 94 °F 107 °F (1922)
Min Temperature 58 °F 55 °F 43 °F (1919)
Degree Days  
Heating Degree Days 0 0  
Month to date heating degree days 0  
Since 1 June heating degree days 32  
Since 1 July heating degree days 0  
Cooling Degree Days 14 10  
Month to date cooling degree days 263  
Year to date cooling degree days 427  
Since 1 June cooling degree days 375  
Growing Degree Days 30 (Base 50)    
Moisture  
Dew Point 47 °F    
Average Humidity 46    
Maximum Humidity 80    
Minimum Humidity 11    
Precipitation  
Precipitation 0.00 in 0.00 in 0.00 in (2016)
Month to date precipitation T 0.04  
Year to date precipitation 16.63 23.42  
Since 1 July precipitation T  
Snow  
Snow 0.00 in - - ()
Month to date snowfall 0.0  
Since 1 June snowfall 0.0  
Since 1 July snowfall 0.0  
Snow Depth -    
Sea Level Pressure  
Sea Level Pressure 29.98 in    
Wind  
Wind Speed 3 mph (ENE)    
Max Wind Speed 16 mph    
Max Gust Speed 21 mph    
Visibility 10 miles    
Events      
T = Trace of Precipitation, MM = Missing Value Source: NWS Daily Summary

Daily Weather History Graph

Daily Weather History Graph

Search for Another Location

Airport or City:

Trip Planner

Search our weather history database for the weather conditions in past years. The results will help you decide how hot, cold, wet, or windy it might be!

Date:

Astronomy

Jul. 29, 2014 Rise Set
Actual Time 6:10 AM PDT 8:27 PM PDT
Civil Twilight 5:40 AM PDT 8:57 PM PDT
Nautical Twilight 5:03 AM PDT 9:34 PM PDT
Astronomical Twilight 4:22 AM PDT 10:14 PM PDT
Moon 8:50 AM PDT (7/29) 9:44 PM PDT (7/29)
Length of Visible Light 15h 16m
Length of Day
14h 16m
Waxing Crescent, 7% of the Moon is Illuminated
Jul 29
Waxing Crescent
Aug 3
First Quarter
Aug 10
Full
Aug 17
Last Quarter
Aug 25
New

Hourly Weather History & Observations

Time (PDT) Temp. Dew Point Humidity Pressure Visibility Wind Dir Wind Speed Gust Speed Precip Events Conditions
12:56 AM 68.0 °F 52.0 °F 56% 30.00 in 10.0 mi Calm Calm - N/A   Clear
1:56 AM 64.9 °F 52.0 °F 63% 30.00 in 10.0 mi Calm Calm - N/A   Clear
2:56 AM 64.9 °F 50.0 °F 58% 30.01 in 10.0 mi Calm Calm - N/A   Clear
3:56 AM 62.1 °F 48.9 °F 62% 30.01 in 10.0 mi South 3.5 mph - N/A   Clear
4:56 AM 60.1 °F 51.1 °F 72% 30.01 in 10.0 mi Calm Calm - N/A   Clear
5:56 AM 57.9 °F 51.1 °F 78% 30.02 in 10.0 mi Calm Calm - N/A   Clear
6:56 AM 59.0 °F 51.1 °F 75% 30.04 in 10.0 mi Calm Calm - N/A   Clear
7:56 AM 62.1 °F 51.1 °F 67% 30.04 in 10.0 mi Calm Calm - N/A   Clear
8:56 AM 68.0 °F 50.0 °F 52% 30.04 in 10.0 mi Calm Calm - N/A   Clear
9:56 AM 75.0 °F 48.9 °F 40% 30.02 in 10.0 mi Calm Calm - N/A   Clear
10:56 AM 82.0 °F 46.9 °F 29% 30.01 in 10.0 mi ESE 4.6 mph - N/A   Clear
11:56 AM 87.1 °F 48.9 °F 27% 29.99 in 10.0 mi SSE 4.6 mph - N/A   Clear
12:56 PM 95.0 °F 46.0 °F 19% 29.96 in 10.0 mi East 5.8 mph - N/A   Clear
1:56 PM 100.0 °F 46.0 °F 16% 29.94 in 10.0 mi East 3.5 mph - N/A   Clear
3:56 PM 102.0 °F 44.1 °F 14% 29.91 in 10.0 mi West 11.5 mph - N/A   Clear
4:56 PM 100.0 °F 33.1 °F 10% 29.91 in 10.0 mi West 11.5 mph - N/A   Clear
5:56 PM 99.0 °F 30.9 °F 9% 29.91 in 10.0 mi WNW 10.4 mph - N/A   Clear
6:56 PM 95.0 °F 42.1 °F 16% 29.92 in 10.0 mi North 9.2 mph - N/A   Clear
7:56 PM 91.0 °F 43.0 °F 19% 29.93 in 10.0 mi North 4.6 mph - N/A   Clear
8:56 PM 84.0 °F 46.0 °F 26% 29.94 in 10.0 mi Variable 3.5 mph - N/A   Clear
9:56 PM 79.0 °F 48.0 °F 34% 29.95 in 10.0 mi Calm Calm - N/A   Clear
10:56 PM 75.0 °F 48.9 °F 40% 29.95 in 10.0 mi Calm Calm - N/A   Clear
11:56 PM 72.0 °F 51.1 °F 48% 29.94 in 10.0 mi Calm Calm - N/A   Clear